When you browse on this site, cookies collect data to enhance your experience and personalize the content and advertising you see.
Visit our Privacy Policy to learn more. By continuing to use the site, you agree to this use of cookies and data.
  • In United Kingdom
  • List of Countries
  • For 7 days
  • Water Temperature
  • Satellite Maps
  • Weather Map
  • Weather Widgets
  • user-avatar
    Login

    Hourly Weather Djibouti

    Today, 21 May, Tuesday

    Time Temperature Precipitation Wind Pressure Humidity
    00:00 +34°C° 0 mm 2 mps 756 mmHg 65%
    01:00 +34°C° 0 mm 2 mps 756 mmHg 66%
    02:00 +34°C° 0 mm 2 mps 756 mmHg 66%
    03:00 +32°C° 0 mm 1 mps 756 mmHg 67%
    04:00 +32°C° 0 mm 1 mps 756 mmHg 69%
    05:00 +32°C° 0 mm 1 mps 756 mmHg 70%
    06:00 +32°C° 0 mm 1 mps 756 mmHg 71%
    07:00 +33°C° 0 mm 1 mps 756 mmHg 67%
    08:00 +34°C° 0 mm 2 mps 757 mmHg 62%
    09:00 +35°C° 0 mm 3 mps 757 mmHg 58%
    10:00 +36°C° 0 mm 3 mps 757 mmHg 54%
    11:00 +37°C° 0 mm 4 mps 756 mmHg 51%
    12:00 +39°C° 0 mm 5 mps 756 mmHg 47%
    13:00 +39°C° 0 mm 5 mps 756 mmHg 48%
    14:00 +39°C° 0 mm 5 mps 755 mmHg 48%
    15:00 +39°C° 0 mm 5 mps 755 mmHg 48%
    16:00 +37°C° 0 mm 5 mps 754 mmHg 51%
    17:00 +36°C° 0 mm 4 mps 754 mmHg 54%
    18:00 +35°C° 0 mm 4 mps 754 mmHg 57%
    19:00 +35°C° 0 mm 3 mps 755 mmHg 59%
    20:00 +35°C° 0 mm 2 mps 755 mmHg 61%
    21:00 +34°C° 0 mm 2 mps 755 mmHg 64%
    22:00 +34°C° 0 mm 2 mps 756 mmHg 65%
    23:00 +33°C° 0 mm 1 mps 756 mmHg 66%

    Tomorrow, 22 May, Wednesday

    Time Temperature Precipitation Wind Pressure Humidity
    00:00 +33°C° 0 mm 1 mps 756 mmHg 67%
    01:00 +32°C° 0.1 mm 1 mps 756 mmHg 68%
    02:00 +32°C° 0.1 mm 1 mps 755 mmHg 69%
    03:00 +32°C° 0.1 mm 1 mps 755 mmHg 71%
    04:00 +32°C° 0.1 mm 1 mps 755 mmHg 71%
    05:00 +32°C° 0.1 mm 1 mps 756 mmHg 71%
    06:00 +32°C° 0.1 mm 2 mps 756 mmHg 71%
    07:00 +32°C° 0 mm 2 mps 756 mmHg 66%
    08:00 +34°C° 0 mm 2 mps 757 mmHg 61%
    09:00 +35°C° 0 mm 2 mps 757 mmHg 56%
    10:00 +36°C° 0 mm 2 mps 757 mmHg 53%
    11:00 +37°C° 0 mm 3 mps 757 mmHg 49%
    12:00 +38°C° 0 mm 4 mps 757 mmHg 46%
    13:00 +38°C° 0 mm 4 mps 756 mmHg 48%
    14:00 +38°C° 0 mm 4 mps 755 mmHg 49%
    15:00 +38°C° 0 mm 4 mps 755 mmHg 50%
    16:00 +37°C° 0 mm 4 mps 755 mmHg 53%
    17:00 +36°C° 0 mm 4 mps 755 mmHg 56%
    18:00 +35°C° 0 mm 3 mps 754 mmHg 60%
    19:00 +35°C° 0 mm 3 mps 755 mmHg 61%
    20:00 +35°C° 0 mm 2 mps 755 mmHg 63%
    21:00 +34°C° 0 mm 2 mps 756 mmHg 65%
    22:00 +34°C° 0.4 mm 2 mps 756 mmHg 65%
    23:00 +33°C° 0.4 mm 1 mps 756 mmHg 66%

    Day after tomorrow, 23 May, Thursday

    Time Temperature Precipitation Wind Pressure Humidity
    00:00 +33°C° 0.4 mm 1 mps 756 mmHg 67%
    01:00 +33°C° 0.5 mm 1 mps 756 mmHg 65%
    02:00 +33°C° 0.5 mm 1 mps 756 mmHg 64%
    03:00 +33°C° 0.5 mm 1 mps 756 mmHg 63%
    04:00 +33°C° 0 mm 1 mps 756 mmHg 62%
    05:00 +33°C° 0 mm 1 mps 756 mmHg 62%
    06:00 +33°C° 0 mm 1 mps 756 mmHg 61%
    07:00 +33°C° 0 mm 1 mps 757 mmHg 59%
    08:00 +34°C° 0 mm 1 mps 757 mmHg 56%
    09:00 +34°C° 0 mm 1 mps 758 mmHg 54%
    10:00 +35°C° 0 mm 1 mps 758 mmHg 51%
    11:00 +36°C° 0 mm 1 mps 757 mmHg 48%
    12:00 +36°C° 0 mm 1 mps 757 mmHg 45%
    13:00 +38°C° 0 mm 2 mps 756 mmHg 44%
    14:00 +38°C° 0 mm 3 mps 756 mmHg 44%
    15:00 +38°C° 0 mm 3 mps 755 mmHg 43%
    16:00 +37°C° 0 mm 3 mps 755 mmHg 46%
    17:00 +37°C° 0 mm 3 mps 755 mmHg 48%
    18:00 +36°C° 0 mm 3 mps 755 mmHg 51%
    19:00 +36°C° 0 mm 2 mps 755 mmHg 53%
    20:00 +35°C° 0 mm 2 mps 756 mmHg 55%
    21:00 +34°C° 0 mm 1 mps 756 mmHg 57%
    22:00 +33°C° 0 mm 1 mps 756 mmHg 57%
    23:00 +33°C° 0 mm 1 mps 756 mmHg 57%

    24 May, Friday

    Time Temperature Precipitation Wind Pressure Humidity
    00:00 +33°C° 0 mm 1 mps 756 mmHg 57%
    01:00 +31°C° 0 mm 0 mps 756 mmHg 58%
    02:00 +31°C° 0 mm 0 mps 756 mmHg 59%
    03:00 +30°C° 0 mm 0 mps 755 mmHg 61%
    04:00 +30°C° 0 mm 0 mps 756 mmHg 62%
    05:00 +30°C° 0 mm 0 mps 756 mmHg 64%
    06:00 +30°C° 0 mm 0 mps 756 mmHg 66%
    07:00 +33°C° 0.1 mm 1 mps 757 mmHg 62%
    08:00 +33°C° 0.1 mm 1 mps 757 mmHg 58%
    09:00 +34°C° 0.1 mm 1 mps 758 mmHg 54%
    10:00 +37°C° 0 mm 2 mps 757 mmHg 50%
    11:00 +38°C° 0 mm 2 mps 757 mmHg 46%
    12:00 +39°C° 0 mm 3 mps 757 mmHg 41%
    13:00 +40°C° 0 mm 4 mps 756 mmHg 42%
    14:00 +40°C° 0 mm 4 mps 755 mmHg 42%
    15:00 +40°C° 0 mm 5 mps 754 mmHg 43%
    16:00 +38°C° 0 mm 4 mps 754 mmHg 47%
    17:00 +37°C° 0 mm 4 mps 754 mmHg 51%
    18:00 +36°C° 0 mm 4 mps 754 mmHg 55%
    19:00 +36°C° 0 mm 3 mps 755 mmHg 57%
    20:00 +35°C° 0 mm 2 mps 755 mmHg 58%
    21:00 +34°C° 0 mm 1 mps 756 mmHg 60%
    22:00 +34°C° 0 mm 1 mps 756 mmHg 59%
    23:00 +34°C° 0 mm 1 mps 756 mmHg 59%

    25 May, Saturday

    Time Temperature Precipitation Wind Pressure Humidity
    00:00 +34°C° 0 mm 1 mps 756 mmHg 58%
    01:00 +33°C° 0 mm 1 mps 756 mmHg 59%
    02:00 +33°C° 0 mm 1 mps 755 mmHg 60%
    03:00 +33°C° 0 mm 1 mps 755 mmHg 60%
    04:00 +33°C° 0 mm 1 mps 755 mmHg 61%
    05:00 +33°C° 0 mm 1 mps 756 mmHg 62%
    06:00 +32°C° 0 mm 1 mps 756 mmHg 63%
    07:00 +33°C° 0 mm 1 mps 757 mmHg 58%
    08:00 +34°C° 0 mm 1 mps 757 mmHg 53%
    09:00 +35°C° 0 mm 1 mps 757 mmHg 48%
    10:00 +36°C° 0 mm 1 mps 757 mmHg 44%
    11:00 +38°C° 0 mm 2 mps 756 mmHg 40%
    12:00 +39°C° 0 mm 2 mps 756 mmHg 37%
    13:00 +39°C° 0 mm 3 mps 755 mmHg 37%
    14:00 +39°C° 0 mm 3 mps 754 mmHg 38%
    15:00 +41°C° 0 mm 4 mps 754 mmHg 38%
    16:00 +40°C° 0 mm 4 mps 754 mmHg 41%
    17:00 +38°C° 0 mm 3 mps 754 mmHg 43%
    18:00 +37°C° 0 mm 3 mps 754 mmHg 46%
    19:00 +36°C° 0 mm 2 mps 754 mmHg 47%
    20:00 +35°C° 0 mm 1 mps 755 mmHg 49%
    21:00 +32°C° 0 mm 0 mps 755 mmHg 50%
    22:00 +32°C° 0 mm 0 mps 755 mmHg 50%
    23:00 +32°C° 0 mm 0 mps 755 mmHg 50%

    26 May, Sunday

    Time Temperature Precipitation Wind Pressure Humidity
    00:00 +32°C° 0 mm 0 mps 754 mmHg 50%
    01:00 +33°C° 0 mm 1 mps 754 mmHg 51%
    02:00 +33°C° 0 mm 1 mps 754 mmHg 52%
    03:00 +33°C° 0 mm 1 mps 754 mmHg 53%
    04:00 +32°C° 0 mm 1 mps 754 mmHg 54%
    05:00 +30°C° 0 mm 0 mps 755 mmHg 55%
    06:00 +30°C° 0 mm 0 mps 755 mmHg 56%
    07:00 +31°C° 0 mm 0 mps 755 mmHg 53%
    08:00 +32°C° 0 mm 0 mps 756 mmHg 50%
    09:00 +35°C° 0 mm 1 mps 756 mmHg 47%
    10:00 +36°C° 0 mm 1 mps 755 mmHg 43%
    11:00 +38°C° 0 mm 2 mps 755 mmHg 39%
    12:00 +40°C° 0 mm 3 mps 754 mmHg 35%
    13:00 +40°C° 0 mm 3 mps 754 mmHg 35%
    14:00 +41°C° 0 mm 4 mps 753 mmHg 35%
    15:00 +41°C° 0 mm 4 mps 752 mmHg 34%
    16:00 +40°C° 0 mm 4 mps 752 mmHg 37%
    17:00 +38°C° 0 mm 3 mps 753 mmHg 39%
    18:00 +37°C° 0 mm 3 mps 753 mmHg 41%
    19:00 +37°C° 0 mm 2 mps 753 mmHg 43%
    20:00 +36°C° 0 mm 2 mps 753 mmHg 45%
    21:00 +35°C° 0 mm 1 mps 754 mmHg 47%
    22:00 +34°C° 0 mm 1 mps 754 mmHg 48%
    23:00 +34°C° 0 mm 1 mps 753 mmHg 49%
    Show more